CST,Max TemperatureF,Mean TemperatureF,Min TemperatureF,Max Dew PointF,MeanDew PointF,Min DewpointF,Max Humidity, Mean Humidity, Min Humidity, Max Sea Level PressureIn, Mean Sea Level PressureIn, Min Sea Level PressureIn, Max VisibilityMiles, Mean VisibilityMiles, Min VisibilityMiles, Max Wind SpeedMPH, Mean Wind SpeedMPH, Max Gust SpeedMPH,PrecipitationIn, CloudCover, Events, WindDirDegrees
2012-11-1,73,56,39,43,40,37,93,64,30,30.06,30.01,29.94,10,10,5,9,4,,0.00,0,,167
2012-11-2,81,63,46,53,49,43,93,65,38,29.98,29.93,29.87,10,10,9,15,5,18,0.00,0,,146
2012-11-3,66,56,43,54,42,35,77,58,42,30.18,30.06,29.90,10,10,10,13,10,16,0.00,0,,330
2012-11-4,66,52,39,42,37,32,93,55,30,30.22,30.15,30.09,10,7,1,7,4,,0.00,0,,98
2012-11-5,57,50,44,47,42,39,89,75,57,30.09,30.03,30.00,10,10,8,16,9,22,0.00,7,Rain,298
2012-11-6,57,50,42,41,39,31,89,75,51,30.13,30.08,30.02,10,9,5,18,6,16,0.00,4,,296
2012-11-7,57,48,39,38,31,26,82,52,30,30.17,30.13,30.09,10,10,10,14,7,22,0.00,0,,5
2012-11-8,69,54,39,41,37,32,79,56,35,30.15,30.07,29.99,10,10,10,17,9,17,0.00,0,,133
2012-11-9,73,64,54,57,53,42,83,67,55,30.04,29.97,29.90,10,9,1,25,15,30,0.00,1,,174
2012-11-10,73,66,60,55,53,50,75,62,45,30.00,29.91,29.83,10,10,10,25,18,39,0.00,0,,173
2012-11-11,66,49,30,58,46,27,100,86,70,30.26,29.97,29.78,10,8,2,28,15,37,0.16,7,Rain,286
2012-11-12,46,35,24,32,23,19,91,63,35,30.48,30.43,30.29,10,10,10,15,5,21,0.00,0,,251
2012-11-13,54,41,28,34,25,20,89,56,27,30.53,30.45,30.38,10,10,5,8,4,,0.00,0,,152
2012-11-14,55,44,34,32,27,22,85,54,29,30.45,30.38,30.32,10,10,10,7,4,,0.00,0,,156
2012-11-15,55,44,34,31,30,27,85,65,37,30.39,30.34,30.31,10,10,9,6,4,,0.00,0,,122
2012-11-16,60,47,34,37,32,29,92,63,31,30.46,30.41,30.38,10,10,9,9,2,,0.00,0,,111
2012-11-17,64,50,36,37,31,26,93,57,25,30.45,30.38,30.32,10,10,10,13,6,16,0.00,0,,131
2012-11-18,64,53,42,36,29,25,60,40,22,30.34,30.28,30.22,10,10,10,15,9,22,0.00,0,,146
2012-11-19,63,54,46,46,44,41,90,72,53,30.24,30.19,30.14,10,10,8,16,8,,0.14,4,Rain,174
2012-11-20,66,56,46,47,42,40,86,69,42,30.24,30.20,30.15,10,10,10,8,4,17,0.00,0,,289
2012-11-21,72,54,37,44,37,32,100,73,23,30.30,30.23,30.12,10,5,0,12,4,,0.00,2,Fog,136
2012-11-22,66,59,52,49,44,37,67,56,45,30.19,30.07,29.99,10,10,10,21,12,30,0.00,3,Rain,185
2012-11-23,55,42,30,33,24,19,70,53,38,30.45,30.40,30.21,10,10,10,18,10,28,0.00,1,,322
2012-11-24,52,38,25,22,18,15,75,47,24,30.44,30.27,30.06,10,10,10,10,5,,0.00,0,,179
2012-11-25,63,51,39,39,29,22,80,45,32,30.05,29.96,29.87,10,10,10,16,10,23,0.00,0,,186
2012-11-26,52,44,33,43,36,26,93,80,60,30.37,30.11,29.93,10,7,2,21,10,28,0.00,6,Rain,36
2012-11-27,46,35,24,28,24,22,92,66,39,30.48,30.39,30.33,10,10,6,8,4,,0.00,0,,59
2012-11-28,57,42,28,32,28,25,92,59,34,30.46,30.37,30.25,10,10,10,9,5,,0.00,0,,152
2012-11-29,63,50,37,34,31,28,79,54,30,30.23,30.17,30.09,10,10,10,22,8,29,0.00,0,,157
2012-11-30,66,56,46,52,45,31,93,67,52,30.14,30.10,30.06,10,10,6,17,10,22,0.00,0,,171